Simultaneous Nadir Overpasses (SNOs) Predictions

Prediction of SNOs over PacNW region [( 10.00, 139.50) to ( 22.70, 165.60)] between AQUA and NPP Satellites:

Table of predicted SNOs over PacNW region for the next 30.0 days since TLE Epoch: 2/19/2022
Index Date (AQUA) Time (AQUA) AQUA Lat,Lon Date (NPP) Time (NPP) NPP Lat,Lon Distance(km) Time Diff (sec)
1 02/23/2022 15:59:22 22.63, 147.79 02/23/2022 16:01:57 23.37, 144.62 334.97 155
2 03/03/2022 15:09:37 22.62, 160.25 03/03/2022 15:11:15 23.27, 157.27 313.86 98
3 03/06/2022 03:31:21 22.66, 147.95 03/06/2022 03:27:52 23.84, 145.49 283.67 209
4 03/11/2022 15:58:42 22.62, 148.01 03/11/2022 16:01:59 23.36, 144.60 358.75 197
5 03/14/2022 02:41:32 22.65, 160.42 03/14/2022 02:38:03 27.10, 157.32 585.76 209
